Wind_Speed
14 14 14 13 13 12 12 13 12 11 11 10 10 11 10 10 11 11 11 11 12 12 12 12 12 13 13 14 14 15 16 17 15 10 9 10 7 7 6 4 13 19 16 13 12 12 9 6 7 7 6 4 0 1 2 0 1 1 2 2 3 3 3 5 5 4 1 2 3 5 4 4 3 4 4 5 8 7 5 5 4 5 4 6 10 19 24 21
15 15 14 13 13 13 13 13 12 12 11 10 10 11 10 10 11 11 10 11 12 11 12 12 13 13 13 13 14 16 18 18 15 12 10 6 3 5 6 8 14 21 18 12 12 12 9 5 6 6 4 3 0 1 2 1 1 1 2 2 3 3 3 4 3 2 1 2 5 5 1 3 3 3 4 2 5 5 4 4 3 6 8 10 14 20 22 21
15 15 14 14 13 13 13 13 12 12 11 11 11 11 10 10 10 10 11 10 11 11 12 12 13 13 13 14 14 16 18 14 9 6 2 2 4 8 8 11 15 20 16 9 11 11 10 10 10 7 3 2 1 1 2 1 2 2 2 2 3 3 3 3 4 4 2 2 5 5 1 2 2 2 2 3 6 4 3 4 4 5 8 11 14 18 20 21
16 15 14 14 13 13 13 13 12 12 11 11 11 11 10 10 9 10 10 10 10 10 11 12 12 12 13 14 14 16 14 6 2 1 2 4 1 9 11 13 15 17 11 8 10 9 10 12 8 3 2 3 1 1 3 2 2 2 2 2 2 3 4 4 5 6 4 3 3 2 2 2 2 1 2 6 7 3 5 6 6 9 13 14 14 16 19 19
16 16 15 14 13 13 13 12 12 12 11 11 11 11 10 10 10 9 10 9 10 10 10 11 11 12 12 13 13 13 8 1 1 1 2 4 1 10 14 15 16 14 12 12 12 9 9 8 4 3 2 3 2 2 3 2 2 2 2 1 2 4 4 5 2 3 3 3 2 1 3 2 2 1 3 6 5 1 1 5 7 10 16 18 17 16 17 17
16 16 16 15 14 13 13 12 12 12 11 11 11 11 10 10 10 9 9 9 9 10 9 10 11 11 12 12 11 8 3 1 2 3 3 3 2 11 16 17 16 15 14 14 11 8 6 3 3 4 2 2 4 4 3 1 2 3 2 2 3 4 4 4 1 2 3 2 2 1 2 1 1 1 2 4 4 2 3 3 7 11 16 19 18 18 18 18
17 16 16 16 15 14 13 13 12 12 11 11 10 10 10 10 10 9 8 9 9 9 9 10 10 10 10 10 6 2 1 4 5 4 5 3 4 12 18 17 16 16 14 12 9 5 4 4 4 4 3 3 3 4 3 2 2 4 3 2 4 5 6 4 1 2 1 3 3 0 2 3 2 1 2 4 3 5 4 5 10 12 17 18 17 17 17 18
17 17 16 16 16 15 13 13 12 11 11 10 10 9 10 9 9 8 8 8 8 9 9 8 9 9 10 8 2 1 1 4 6 5 5 2 7 15 19 17 15 15 13 11 8 5 4 5 5 4 3 3 3 4 3 3 2 4 4 2 2 4 6 4 3 4 3 5 2 1 4 3 3 2 3 2 2 3 2 8 12 13 16 16 15 16 15 16
17 17 16 17 16 16 14 13 12 12 11 10 9 9 9 9 8 8 8 8 8 8 7 8 8 7 7 5 1 1 1 2 6 5 2 1 9 17 19 16 16 15 12 10 8 6 5 4 4 4 3 2 3 5 3 4 3 4 5 3 3 3 4 3 3 4 3 3 3 3 4 1 1 3 3 1 2 2 5 9 12 13 16 15 14 15 15 14
17 17 17 16 16 16 15 14 13 12 11 10 9 9 9 8 8 7 8 8 7 6 6 6 7 5 4 3 0 1 1 4 9 6 3 1 10 18 19 15 17 16 10 8 6 6 4 4 4 3 3 3 3 4 3 4 2 3 4 3 4 3 3 2 3 2 1 2 5 5 2 2 1 2 2 3 5 6 8 9 11 12 15 15 14 14 13 12
18 18 17 17 16 16 15 15 14 12 11 10 9 9 8 8 8 7 7 6 6 6 5 4 5 3 2 2 1 2 2 4 10 8 5 2 8 16 18 16 18 16 11 6 7 9 4 2 5 2 1 3 3 3 2 3 2 2 3 2 4 4 4 4 4 3 2 3 6 5 1 3 2 2 1 5 8 8 9 10 11 12 13 13 14 14 11 10
19 18 18 17 16 16 16 16 15 13 11 10 10 9 8 8 7 6 5 5 5 4 3 2 3 1 1 1 4 6 5 5 10 8 2 3 5 11 16 17 16 15 13 7 6 10 5 2 5 1 1 3 3 2 1 2 1 1 2 2 2 3 4 5 3 2 2 2 5 6 2 2 4 3 2 7 10 9 10 10 10 12 11 12 13 12 9 8
19 19 18 18 17 17 16 16 15 14 12 10 10 9 8 7 6 6 5 5 4 3 3 2 2 0 1 2 4 5 7 9 11 6 2 5 4 7 12 15 15 14 14 8 3 7 8 3 1 2 2 2 1 1 1 2 0 2 2 2 2 2 3 3 0 1 3 2 5 6 4 4 6 4 6 9 11 11 10 10 11 11 10 10 11 10 7 6
19 19 18 18 18 17 17 16 15 15 13 11 10 9 8 7 6 5 4 4 3 2 3 2 1 2 1 5 6 6 8 9 10 7 6 8 6 5 9 13 14 12 10 6 2 4 10 6 1 2 2 1 1 0 0 2 1 1 2 1 1 2 3 2 1 3 4 2 4 7 5 4 5 4 8 10 12 13 11 11 12 11 11 11 10 9 6 5
19 19 18 18 18 18 17 17 16 16 15 12 10 9 8 7 6 5 4 4 2 1 3 2 1 1 1 7 6 5 5 5 6 8 8 10 8 6 9 12 12 10 9 5 2 2 7 7 1 1 1 0 1 1 0 1 2 1 2 2 0 2 2 2 2 5 5 1 3 7 4 4 4 3 10 11 12 12 10 11 12 12 13 12 10 7 6 4
19 19 18 18 17 17 17 17 16 17 16 13 9 8 7 7 5 3 3 1 1 3 4 2 1 1 2 3 4 3 4 4 4 5 7 11 9 5 10 12 9 8 6 5 3 3 4 4 1 1 0 1 2 2 2 1 1 1 1 2 2 3 2 1 2 4 4 1 3 6 3 2 2 2 10 12 13 12 10 11 12 12 13 12 10 7 6 5
19 19 18 18 17 17 17 16 16 17 17 13 9 8 7 5 3 1 1 3 2 3 5 2 1 1 3 4 4 3 3 3 3 2 7 11 8 8 13 8 5 6 5 2 3 2 1 1 0 1 1 1 1 2 3 3 3 1 1 1 1 2 2 2 2 1 1 2 4 5 4 4 1 1 10 12 13 12 10 10 10 10 10 10 9 8 7 7
19 19 19 18 18 17 17 17 16 16 16 13 8 7 6 1 2 2 3 5 3 3 4 1 1 2 2 3 3 2 4 5 2 1 8 11 8 11 10 4 5 7 5 2 1 2 1 0 1 1 1 1 1 2 4 3 3 4 2 2 1 2 2 3 2 1 2 2 4 5 7 8 1 2 10 12 11 11 9 9 9 9 10 10 9 9 9 8
20 20 19 19 18 17 17 17 16 16 16 12 6 6 3 2 4 4 4 4 3 2 2 2 3 2 2 2 4 6 7 5 3 2 9 13 10 9 5 4 8 7 4 2 2 2 1 1 1 2 2 2 3 4 4 2 3 4 2 1 2 2 3 4 3 1 2 3 6 7 8 9 5 5 10 12 11 10 9 9 8 8 9 9 10 10 9 10
20 20 20 20 19 18 17 16 16 16 16 11 4 2 1 1 1 1 2 3 5 5 5 3 6 3 4 4 5 4 4 2 2 3 11 14 12 8 2 3 4 2 2 2 2 2 1 2 2 3 4 4 4 3 2 3 3 3 2 1 2 2 4 3 2 1 1 4 6 6 8 7 5 6 10 11 11 11 10 10 9 9 9 9 10 11 11 11
21 21 20 20 19 18 17 16 17 17 14 9 2 0 1 0 1 2 1 5 7 8 10 8 8 6 6 4 1 3 2 1 1 2 11 13 12 10 1 2 2 2 1 0 2 2 1 3 3 4 5 3 3 4 4 4 3 2 2 2 2 3 4 2 1 2 1 4 2 2 7 4 1 4 8 10 11 11 11 11 10 10 10 9 10 12 12 10
21 20 20 21 19 19 17 16 17 16 11 4 1 2 2 1 1 2 2 5 7 9 12 10 5 8 9 7 6 0 2 2 2 0 9 10 6 6 2 1 3 3 1 0 2 1 2 4 5 5 3 5 4 4 4 3 2 2 1 1 2 2 3 2 1 3 1 3 2 2 6 1 3 2 6 8 8 7 8 9 8 9 10 10 10 11 11 10
21 20 21 21 20 19 17 16 16 11 4 2 4 3 2 2 4 5 2 4 7 5 8 7 5 7 7 6 8 7 4 4 2 2 9 10 3 3 4 3 2 3 2 3 3 3 3 4 4 4 6 6 4 3 4 3 2 2 2 2 2 1 1 1 1 2 2 1 1 4 4 2 4 2 3 2 1 2 3 6 7 8 10 10 9 9 10 11
21 21 21 21 21 19 16 17 13 4 4 8 9 5 0 5 7 4 2 3 5 2 4 6 5 6 6 4 8 12 5 4 3 3 10 11 4 3 4 3 3 3 3 4 4 4 4 1 2 6 6 5 4 3 5 4 2 2 3 5 3 1 3 2 1 1 1 1 2 5 4 2 2 4 4 1 1 2 3 5 8 8 10 9 9 10 11 11
21 22 22 22 22 19 18 14 5 1 10 13 8 3 4 12 8 3 3 2 3 3 2 4 3 5 6 4 10 10 3 3 5 4 10 11 7 4 2 2 3 4 3 4 4 4 4 1 4 5 3 4 4 3 5 5 3 2 5 9 7 4 3 3 2 1 3 3 2 1 3 3 2 3 6 4 3 3 3 6 9 9 10 10 10 11 11 10
22 23 23 21 21 21 16 6 2 6 13 8 4 2 10 16 6 6 2 2 2 3 1 2 2 4 6 5 7 6 4 3 4 5 10 12 10 5 3 2 1 2 4 4 3 2 2 3 3 3 3 4 4 3 5 6 4 2 4 8 8 5 2 2 2 2 2 2 1 1 1 3 3 2 5 5 7 7 5 7 10 11 11 12 12 11 11 11
24 24 23 22 21 19 10 4 7 10 7 3 2 5 14 14 2 9 1 2 2 2 1 0 1 5 5 4 6 5 3 2 3 6 8 10 9 2 2 4 1 2 3 3 2 1 3 4 2 2 3 4 4 3 5 8 6 2 1 5 8 6 5 4 2 1 0 0 1 1 1 2 3 2 2 2 6 8 6 8 10 10 12 13 13 13 12 12
25 25 24 22 19 14 7 9 10 6 5 4 4 9 15 6 7 6 1 1 1 0 1 0 1 4 2 3 6 3 1 2 4 4 4 8 7 2 2 6 4 4 3 3 4 1 3 4 4 5 3 2 4 3 7 11 5 1 2 4 6 4 3 3 2 2 1 1 3 1 3 1 3 2 2 3 6 8 9 10 10 10 11 11 12 13 13 12
28 27 25 22 19 13 8 9 8 6 8 8 7 13 10 3 6 2 2 0 1 1 1 0 2 3 3 3 5 4 2 1 1 1 2 5 3 2 2 5 4 4 2 2 4 0 1 3 4 5 2 3 3 0 7 10 3 1 5 6 5 4 3 2 1 2 1 2 3 2 4 1 3 1 2 3 4 5 6 6 7 8 9 10 10 10 10 9
31 28 24 20 17 11 6 9 12 10 9 8 10 12 3 5 2 1 1 2 2 1 1 1 1 1 4 5 3 4 2 2 2 2 2 2 1 2 1 2 4 3 1 1 2 1 1 1 1 3 2 2 3 3 2 2 3 4 5 5 5 3 2 1 2 2 1 2 1 2 5 2 3 1 1 2 2 0 3 3 3 4 7 9 9 8 8 8
32 28 23 18 14 9 3 6 9 5 1 5 12 8 2 2 2 2 2 2 1 1 1 0 0 1 4 4 2 2 2 1 2 4 4 2 2 2 1 2 3 2 1 1 2 1 2 1 1 2 1 3 5 5 2 2 3 4 2 3 3 1 1 1 1 0 3 3 1 2 3 2 3 2 1 2 1 2 4 5 4 5 6 7 7 7 7 6
32 27 22 17 13 12 10 8 6 4 5 9 12 3 3 1 1 3 2 2 1 1 1 0 1 1 2 1 2 3 2 2 2 4 4 3 4 4 3 4 3 2 1 3 2 1 2 4 2 2 1 3 4 4 3 1 1 2 2 3 3 1 1 2 1 2 3 1 1 2 1 1 1 1 2 4 5 5 5 5 7 8 6 5 5 6 4 5
31 25 21 16 11 16 18 15 12 12 13 11 6 2 3 1 3 3 3 2 1 1 1 1 2 1 1 1 2 2 2 3 3 3 2 2 4 5 1 1 3 2 1 2 2 1 2 2 1 1 2 3 5 5 3 3 3 4 4 3 4 3 2 3 1 1 2 1 1 1 2 1 1 1 2 5 6 7 6 5 6 7 5 2 2 5 6 6
28 22 17 12 8 11 13 14 13 11 8 5 0 3 3 3 3 2 2 3 1 2 1 0 2 2 2 1 2 2 2 3 3 4 3 3 3 4 2 1 2 1 1 1 1 2 3 2 2 3 1 2 7 5 3 4 4 3 1 2 4 4 2 3 3 2 3 1 2 1 1 2 2 1 3 5 5 5 5 4 2 1 1 4 6 8 8 8
25 18 10 6 8 10 11 10 10 8 4 1 2 2 4 5 2 1 2 2 1 2 2 1 1 1 1 1 2 1 2 2 2 4 4 3 3 3 3 5 5 2 2 3 2 1 1 3 2 1 1 2 4 2 3 4 4 1 0 2 2 3 3 1 0 1 1 1 2 2 1 1 0 1 4 4 3 5 4 3 3 5 7 8 9 9 9 9
22 11 3 6 14 16 11 8 6 10 7 2 2 3 3 3 2 2 2 1 2 0 2 1 1 1 1 1 1 0 1 1 2 2 2 2 3 3 2 3 5 6 4 3 2 1 1 2 1 1 0 0 2 2 2 0 2 3 2 3 1 0 3 3 2 2 1 2 2 1 1 1 1 1 2 1 2 4 3 3 4 6 8 9 9 8 9 10
19 8 3 9 21 18 9 4 9 13 6 2 4 4 2 2 3 3 1 1 2 1 0 1 0 1 1 1 1 1 1 2 2 1 2 2 2 3 3 2 4 8 7 3 1 2 2 1 1 0 2 2 2 2 5 3 1 3 3 5 3 2 2 2 2 2 0 3 2 1 1 1 3 2 3 5 5 5 4 3 4 5 7 8 7 7 8 8
14 5 1 11 23 17 5 5 15 13 3 2 4 3 2 2 2 2 1 1 1 2 2 1 1 1 0 1 1 2 2 2 2 0 2 1 1 2 2 2 4 6 5 3 2 1 2 2 1 1 1 2 2 2 5 3 3 1 2 5 3 2 2 2 2 2 3 3 1 1 0 2 4 1 1 5 6 7 6 4 5 5 4 5 5 5 6 5
7 1 0 14 22 10 4 12 15 8 1 4 5 3 2 2 2 2 1 1 1 1 1 1 1 1 1 1 1 1 2 2 3 1 1 0 1 1 0 1 3 2 2 4 4 1 1 2 1 0 1 1 1 1 3 3 4 3 3 3 1 1 2 2 1 2 4 4 2 2 2 3 3 1 2 1 3 6 7 5 4 4 3 3 3 4 4 4
3 1 1 14 15 8 13 12 8 2 2 3 3 1 1 2 2 3 3 2 1 1 0 1 1 0 1 1 1 1 1 1 3 2 2 1 1 1 1 2 0 0 0 3 3 1 1 1 2 0 1 2 1 0 2 3 3 3 4 3 1 1 1 1 1 1 1 3 3 3 3 2 1 2 4 4 3 2 5 5 3 2 3 3 3 1 2 4
1 1 3 10 8 9 7 4 2 1 3 1 0 2 0 1 1 2 2 1 1 1 0 2 3 1 1 1 2 1 0 1 2 2 2 2 1 0 1 1 1 1 1 3 2 1 1 1 2 1 0 2 1 2 2 3 2 2 3 3 3 3 3 4 3 1 0 1 2 3 3 2 2 2 5 5 3 2 2 5 5 4 4 5 3 1 3 5
1 1 6 11 1 2 4 1 1 1 2 0 0 2 1 0 1 2 0 1 1 1 1 1 3 2 2 2 2 2 1 1 2 2 1 2 3 3 0 1 1 1 1 1 1 1 1 2 2 1 0 0 1 1 1 1 1 1 1 1 2 2 2 3 4 3 2 1 1 1 2 2 3 5 5 5 4 3 2 5 7 5 5 6 5 5 5 6
1 0 8 15 3 7 3 2 1 2 0 2 2 2 1 0 1 1 0 1 1 1 1 0 2 2 2 2 2 2 2 2 2 1 1 2 3 3 1 2 2 1 1 1 1 0 1 1 2 2 1 1 0 1 1 1 2 2 3 2 1 1 1 1 1 2 3 3 2 2 3 3 3 5 5 5 4 2 2 5 8 7 7 8 8 7 6 5
2 2 4 17 11 2 1 2 1 2 1 3 2 1 2 0 0 1 0 1 1 1 0 1 1 0 0 1 1 1 1 1 0 1 0 2 1 1 3 2 2 2 2 1 1 0 1 1 1 3 3 1 1 2 2 1 1 1 2 2 1 2 4 3 2 1 3 2 2 3 3 3 3 4 6 7 6 7 6 5 7 7 6 7 7 6 6 6
2 1 2 11 16 9 3 1 1 1 2 3 2 4 4 2 1 2 1 2 2 1 0 1 1 1 1 2 2 2 2 0 0 2 1 1 2 2 4 4 2 3 2 3 4 2 1 0 1 1 5 5 4 2 1 1 1 1 2 3 2 1 2 3 3 2 4 3 2 2 2 4 3 6 9 9 7 7 7 7 7 7 6 6 6 7 7 7
1 2 2 4 8 7 3 1 1 0 1 2 2 4 5 3 3 3 2 3 2 2 2 2 3 1 1 2 2 2 3 2 1 2 2 2 2 2 4 4 4 5 7 10 9 4 2 2 3 3 2 1 1 1 3 1 1 2 2 4 5 4 3 0 3 3 3 4 3 1 1 6 3 6 8 8 8 7 6 7 7 7 7 7 7 8 8 8
1 1 2 2 3 3 3 5 6 4 2 1 1 4 6 4 3 3 3 3 2 2 2 3 4 3 0 0 2 2 3 3 3 3 2 2 1 2 3 2 5 6 4 7 7 4 3 2 4 6 7 5 3 3 4 4 5 5 4 4 5 5 4 1 3 2 2 4 4 1 2 5 3 6 7 6 7 5 6 6 6 6 6 6 7 9 10 10
2 1 1 2 2 3 3 5 7 7 7 4 2 4 7 7 6 4 4 2 3 4 2 2 7 8 2 2 2 2 3 3 4 4 2 3 2 2 3 3 4 6 4 2 2 3 5 2 2 3 6 7 7 7 8 8 7 6 7 6 6 7 5 5 4 2 0 1 2 4 5 4 4 4 5 6 5 4 5 5 5 6 6 7 9 11 12 11
2 1 1 1 1 1 2 5 7 7 9 7 4 6 9 10 8 6 4 2 2 6 5 3 7 10 6 2 2 3 3 2 4 3 2 3 3 2 3 2 2 5 4 2 2 1 3 2 2 3 4 6 8 7 8 9 7 6 8 7 6 7 8 8 5 3 5 6 5 7 10 8 4 4 5 5 3 3 5 6 7 8 8 10 12 13 12 12
1 1 2 1 2 2 2 3 5 4 6 6 4 6 8 10 9 6 5 5 3 5 6 4 5 7 7 7 6 6 4 3 3 3 2 1 2 2 2 1 2 6 5 2 1 2 2 3 4 4 4 3 5 6 6 8 8 6 5 5 5 5 6 6 5 4 6 8 6 8 11 8 4 4 5 4 3 5 8 10 10 9 9 12 14 14 13 13
2 1 0 1 2 4 2 2 3 3 4 5 5 5 7 8 9 5 3 6 5 4 5 4 4 3 4 9 9 6 4 4 2 3 3 2 2 1 1 1 0 4 5 3 1 2 2 4 3 3 3 2 2 3 5 7 7 4 2 3 5 4 3 4 4 3 2 4 7 7 6 5 3 4 5 6 7 10 12 12 11 10 11 14 14 13 13 12
3 1 1 1 1 4 3 2 4 3 3 4 4 4 5 6 9 5 3 4 6 7 4 4 3 2 3 8 8 5 5 6 6 5 4 3 2 2 1 1 1 2 3 2 1 1 2 5 5 3 4 3 1 2 3 4 3 3 2 1 2 2 2 2 4 5 5 0 3 3 4 5 4 4 6 9 11 12 11 9 9 10 11 13 13 13 12 11
Wind_Direction
335 333 330 328 327 324 322 323 322 319 317 315 316 315 314 315 316 318 322 320 317 317 319 320 319 317 316 318 320 317 312 310 305 288 250 263 277 224 222 191 172 168 157 146 146 143 133 137 143 144 148 139 352 151 154 169 145 175 183 205 213 188 174 187 195 184 164 347 344 352 14 31 44 114 132 90 74 87 88 62 63 52 62 94 108 126 133 144
338 335 333 330 327 324 322 323 322 319 317 316 314 314 314 314 316 319 319 317 316 317 320 320 319 317 316 320 323 317 316 313 297 270 252 262 239 207 202 170 169 171 162 150 154 152 147 152 153 146 142 152 74 129 169 176 183 182 152 218 214 179 184 197 200 186 204 318 331 333 28 30 350 146 164 161 116 116 100 74 76 83 91 106 123 132 137 149
342 339 337 333 329 324 322 322 320 318 316 315 312 312 314 314 317 317 318 318 318 319 320 319 319 318 319 322 321 318 317 313 294 254 232 16 207 200 175 161 169 173 169 160 161 165 163 158 157 150 129 149 104 145 165 157 194 182 182 228 205 199 239 210 209 226 226 295 318 327 344 6 340 180 199 162 143 166 169 146 149 146 139 134 139 140 143 153
348 344 340 336 331 326 324 321 318 316 314 312 310 311 311 313 317 315 316 318 320 322 320 318 317 319 323 322 317 320 320 302 273 186 101 22 167 175 168 157 156 167 173 165 160 162 153 144 146 134 122 145 75 170 168 175 187 164 202 222 159 171 248 229 205 226 228 242 282 325 323 353 65 160 214 156 151 208 218 194 187 175 163 152 150 150 151 158
351 347 344 340 336 329 326 321 317 314 312 310 308 309 309 310 312 312 315 317 319 321 318 317 318 322 321 318 320 323 324 221 166 330 12 8 120 162 165 155 146 152 154 151 148 144 139 129 126 112 110 146 143 174 176 180 159 165 201 196 139 151 240 266 223 212 205 199 223 320 327 344 97 165 186 171 179 213 220 213 202 175 166 162 158 155 159 167
352 350 348 344 340 335 329 323 317 313 309 308 306 308 308 308 309 310 314 316 318 319 320 321 322 324 319 318 323 323 321 259 277 292 322 353 152 161 161 154 148 147 144 143 139 142 135 104 140 147 122 131 160 177 168 168 178 208 202 173 200 185 232 270 290 191 171 193 244 284 327 344 125 136 173 206 239 308 330 233 191 173 170 166 159 159 167 174
353 353 351 348 344 339 334 326 319 314 309 305 304 306 306 307 309 310 313 315 318 321 323 323 324 324 324 327 320 323 319 276 290 297 305 311 167 164 162 156 154 151 148 142 134 137 129 126 158 153 134 129 176 186 156 139 187 229 211 203 213 199 228 241 247 242 189 243 256 332 303 271 226 180 175 209 278 319 310 182 166 164 167 166 163 166 172 176
354 353 353 352 348 344 338 330 324 317 311 307 305 304 303 304 305 308 311 314 317 321 321 321 327 326 332 346 333 304 248 262 304 315 307 286 174 172 165 158 160 158 154 152 145 150 149 152 161 162 159 142 180 175 151 156 174 223 214 211 188 197 235 243 261 266 250 251 240 209 260 256 209 188 182 185 355 350 96 143 150 157 164 168 170 172 175 179
354 353 353 352 350 348 342 336 330 322 315 308 304 300 299 300 302 307 307 311 313 316 321 321 323 323 336 356 349 286 249 302 340 332 332 162 179 178 171 166 168 163 154 153 146 149 165 173 170 189 183 133 174 165 163 199 196 210 203 204 208 236 267 262 264 261 258 251 176 206 249 268 157 186 186 124 76 125 130 140 148 157 167 172 175 177 179 181
354 353 353 353 352 350 345 342 335 327 319 309 304 299 298 301 301 304 304 308 312 313 320 324 323 324 340 351 244 297 311 16 13 19 39 143 179 177 178 176 173 168 155 151 153 159 182 197 175 191 157 120 179 159 162 197 166 172 182 216 236 275 305 277 270 261 297 248 191 214 271 40 47 219 203 126 137 153 143 148 156 164 173 176 181 184 183 182
354 354 353 352 351 350 348 345 339 332 322 314 308 301 300 300 296 298 300 303 309 312 316 320 328 338 12 21 191 259 255 10 8 17 44 144 181 184 188 184 179 175 158 155 192 190 199 186 161 171 147 148 173 148 184 190 119 150 165 241 255 294 282 240 272 267 251 240 191 197 157 79 115 227 234 135 149 161 153 156 166 172 175 180 186 187 183 181
356 356 355 354 351 350 349 347 343 336 326 318 311 304 301 294 292 295 294 300 302 307 316 312 311 319 25 343 218 237 250 303 331 346 47 157 183 195 197 191 188 188 176 175 211 205 213 187 164 145 122 159 164 143 194 167 102 127 137 265 276 329 265 217 261 258 203 222 164 164 169 146 177 185 128 143 155 160 160 162 170 175 179 184 186 187 181 175
356 356 357 356 353 351 349 346 343 339 332 322 314 309 302 293 293 293 289 292 288 289 294 298 297 250 40 261 226 256 279 288 301 311 188 180 184 192 196 193 191 197 195 186 182 203 212 208 130 65 121 169 173 128 134 97 103 149 120 279 291 316 249 197 166 138 182 204 156 176 226 215 202 178 140 155 163 160 161 168 175 179 184 184 182 184 177 167
354 355 356 355 354 351 350 348 345 342 336 326 317 310 303 298 291 288 287 279 275 274 248 227 267 114 136 263 266 293 297 287 279 262 207 186 170 158 178 188 189 194 198 181 107 197 209 209 62 74 155 226 14 98 112 53 34 131 134 162 311 239 206 180 150 156 182 184 160 198 236 228 220 181 157 165 169 167 167 172 179 183 188 188 182 182 176 174
352 353 353 353 353 350 350 348 346 344 340 330 320 312 305 299 290 282 276 261 251 184 183 187 214 123 288 277 286 294 283 291 268 245 223 198 175 149 170 181 184 191 193 181 121 132 189 193 162 92 194 282 127 179 190 56 52 61 187 178 179 219 222 282 205 194 209 96 156 206 229 237 247 167 159 169 176 177 176 176 182 188 190 191 184 179 179 182
351 350 350 350 350 349 349 347 346 345 343 337 326 320 305 292 282 266 261 222 154 155 166 163 190 200 276 284 327 314 260 277 276 255 218 199 193 161 159 163 167 180 182 185 174 113 138 160 111 8 55 132 159 148 131 138 114 59 247 197 170 198 228 298 175 214 249 88 169 216 237 228 271 162 162 169 179 181 182 181 186 192 191 193 190 183 184 184
350 349 347 347 347 348 346 345 344 342 344 341 331 325 309 289 256 216 136 131 147 174 170 141 104 201 262 280 312 313 271 281 285 260 183 187 200 159 143 142 145 155 150 156 183 161 114 137 67 52 61 73 154 153 160 188 191 175 238 192 189 204 213 245 171 170 261 182 198 214 226 220 357 138 171 172 181 182 185 185 186 193 193 195 196 193 192 197
348 346 344 343 344 345 343 343 341 338 342 341 334 339 331 291 150 129 120 135 132 139 161 155 147 218 258 268 292 297 303 298 277 188 164 170 178 154 139 133 132 130 128 98 125 182 180 79 318 154 109 72 158 175 187 199 190 178 186 180 197 213 216 254 255 141 134 207 211 185 216 230 249 147 176 174 182 186 188 186 184 191 195 198 202 203 201 205
344 344 343 341 342 343 342 340 337 334 338 337 338 354 3 125 124 119 118 131 142 180 237 206 186 276 316 258 281 294 302 292 242 200 160 161 163 151 120 112 128 124 138 148 146 180 176 125 156 171 173 183 183 195 199 183 149 153 156 172 195 223 236 252 265 244 156 220 219 194 213 222 192 171 180 177 183 192 193 188 189 190 192 200 205 207 208 210
343 343 342 341 341 342 340 337 334 331 331 333 345 8 33 115 96 125 135 191 211 246 277 222 190 251 295 269 286 304 306 282 244 185 163 166 159 151 93 72 114 104 130 152 151 147 191 175 180 196 196 195 196 189 149 116 116 126 132 180 221 242 257 254 244 312 189 218 226 206 217 222 188 180 183 180 183 192 196 193 196 195 194 202 205 207 211 213
340 341 341 340 339 339 340 336 330 326 323 325 336 265 249 218 331 324 286 238 227 230 249 232 198 225 251 249 289 50 33 319 320 147 166 167 154 156 183 23 124 134 118 203 130 110 214 192 211 222 200 176 165 145 125 119 113 123 169 229 248 224 253 268 160 2 255 214 235 188 211 221 165 187 184 183 191 198 202 200 199 199 202 207 209 211 212 212
339 340 339 339 338 338 339 335 327 323 321 318 269 240 257 206 247 316 306 277 255 216 230 238 220 247 249 245 251 235 36 269 306 119 164 158 156 176 166 79 158 154 60 264 135 116 208 213 228 215 146 99 104 132 139 131 127 129 165 241 245 213 258 277 132 13 34 212 250 169 193 167 51 176 183 190 203 204 204 207 204 202 209 215 213 215 216 213
338 337 337 337 336 336 339 333 323 321 327 306 263 244 234 264 298 299 269 288 284 216 216 225 216 238 239 248 235 193 184 208 210 221 173 161 159 184 151 134 159 135 140 187 177 170 194 238 235 167 139 127 113 128 138 124 155 180 175 222 228 189 248 204 122 29 42 278 245 146 151 68 68 138 175 191 206 153 166 191 200 206 217 222 218 219 219 217
337 337 336 335 333 336 340 329 317 314 332 307 280 246 251 322 315 292 200 261 286 271 220 205 199 218 222 229 186 173 181 195 188 204 177 166 131 141 163 145 142 151 181 183 170 195 219 284 101 125 145 155 131 138 163 167 199 216 213 221 229 209 226 242 0 347 170 65 71 123 130 89 98 171 192 151 70 106 128 177 194 212 227 227 221 222 222 222
338 338 336 335 333 335 338 328 297 304 323 306 273 229 353 335 325 192 180 298 274 283 255 187 198 216 198 167 164 167 161 188 212 199 172 168 145 138 162 134 169 188 175 150 146 216 243 160 131 130 131 160 149 165 194 193 196 233 219 217 223 213 216 260 319 239 181 125 71 113 165 145 96 192 193 178 191 179 160 202 209 213 225 226 222 224 223 224
339 339 337 335 333 335 340 328 232 320 318 296 223 237 335 334 322 172 169 352 264 281 291 165 219 191 166 149 160 158 144 188 221 172 167 172 154 138 147 131 249 198 155 148 155 236 231 124 146 151 141 169 183 213 210 190 187 232 215 205 208 205 208 243 239 208 191 126 91 308 220 155 118 170 187 181 199 196 181 209 217 215 221 223 222 223 221 222
340 339 336 332 332 338 342 290 298 314 302 259 223 307 328 330 209 167 176 351 273 278 152 179 257 182 167 167 172 163 157 154 127 148 171 177 161 116 176 166 179 177 146 152 186 219 152 124 114 128 125 159 192 227 201 181 184 206 174 167 173 187 202 205 199 180 190 59 138 346 327 163 131 135 186 184 192 200 204 209 213 214 218 222 221 219 219 220
340 339 335 329 328 330 309 283 297 287 251 268 288 315 329 328 165 163 8 358 291 304 151 346 136 169 155 155 183 202 302 117 133 164 186 176 168 53 192 196 191 171 149 179 199 172 141 169 172 153 129 180 208 222 177 176 192 273 124 135 144 159 174 171 162 113 60 235 179 67 356 192 146 109 162 179 188 205 217 216 213 212 215 219 219 215 215 215
338 336 330 324 322 320 299 271 263 263 278 287 305 321 330 148 159 124 51 208 269 35 96 103 128 152 102 120 211 253 328 17 139 154 123 162 178 44 175 193 158 147 119 210 220 234 129 208 180 162 177 217 219 201 172 178 192 151 133 106 96 94 83 93 131 111 91 232 190 36 349 221 166 107 134 168 184 204 221 225 222 218 217 218 219 213 204 202
337 333 327 322 316 311 298 261 263 286 290 284 318 329 337 145 139 46 104 255 276 41 75 161 141 136 122 132 224 257 278 327 57 105 110 139 134 44 91 123 101 138 130 347 258 258 0 352 148 185 215 186 116 75 147 170 117 150 143 102 95 80 56 60 40 70 172 214 177 6 338 282 186 175 186 175 153 288 279 265 256 248 236 225 222 216 200 193
334 331 324 314 298 286 272 262 280 313 284 305 332 334 144 122 39 126 191 261 283 0 24 95 29 105 142 151 207 229 215 310 83 133 145 142 130 91 128 139 97 123 164 284 259 284 329 254 203 231 189 125 107 87 53 33 114 157 147 121 134 74 37 114 40 139 198 189 88 0 329 275 207 178 232 271 338 345 299 282 289 281 258 238 227 214 200 185
332 330 321 307 283 255 239 245 273 287 280 314 332 337 147 121 209 189 245 292 327 1 54 337 298 107 153 194 197 185 175 175 162 156 152 154 169 171 185 183 162 162 205 222 226 337 267 225 267 312 190 164 139 105 89 88 146 169 133 143 170 162 169 202 202 202 212 190 59 339 309 236 241 279 296 299 328 343 314 289 282 277 272 262 230 201 180 164
331 329 319 307 276 249 253 264 267 275 286 299 321 53 101 160 215 208 240 271 6 26 92 227 297 318 168 202 197 178 166 181 186 178 152 137 174 187 195 156 165 172 197 191 182 223 233 242 300 249 205 188 179 163 154 171 189 185 160 163 180 158 161 200 185 219 246 199 81 328 288 198 210 305 279 296 327 342 330 304 282 275 278 282 168 150 135 132
331 329 322 316 296 277 286 285 266 265 284 281 190 91 130 187 227 202 211 247 284 336 333 276 329 324 172 199 248 180 173 200 174 163 163 141 173 199 198 184 188 158 97 149 180 191 207 232 206 192 180 169 188 193 157 140 158 180 152 159 180 170 181 209 201 200 207 145 96 163 214 184 157 72 320 312 336 357 355 343 329 321 98 105 109 114 115 117
333 332 331 357 359 341 332 306 263 233 224 169 108 133 177 196 232 183 197 241 251 311 323 356 9 307 187 284 302 191 198 227 135 145 167 158 178 189 179 196 200 166 138 180 207 136 211 254 254 277 329 180 197 186 104 116 135 130 63 151 186 187 154 142 178 154 169 133 124 173 215 268 213 327 317 320 4 26 25 25 76 98 106 108 107 110 113 117
336 345 35 29 359 346 336 314 238 193 187 143 148 190 201 214 212 176 186 176 132 341 310 321 72 193 255 278 268 199 202 127 91 155 181 176 196 181 180 203 188 180 177 179 195 148 156 259 294 341 49 229 260 168 109 179 160 132 173 178 177 75 115 117 120 55 12 206 171 148 194 196 212 226 224 193 78 63 56 72 101 112 121 119 119 129 133 136
338 359 88 3 349 342 329 289 179 170 168 151 185 202 216 223 192 179 202 121 113 83 25 297 312 217 255 234 239 279 215 108 74 199 181 177 214 177 194 226 180 194 200 180 217 219 199 232 343 18 120 40 316 143 86 25 112 144 180 165 135 77 80 111 156 91 128 212 178 110 160 177 196 178 158 171 153 124 118 116 120 132 136 128 126 132 129 130
335 349 112 353 346 338 325 173 161 156 138 174 200 226 209 202 193 186 197 92 109 59 82 197 287 343 313 217 260 300 260 173 108 179 173 182 232 154 178 223 177 200 214 176 194 236 199 234 319 261 173 37 340 156 111 60 21 29 148 135 133 188 166 156 166 151 182 202 169 144 188 238 211 185 150 179 155 130 130 132 135 131 113 103 96 96 100 97
338 347 30 351 344 337 137 148 152 144 109 183 201 226 199 212 249 231 224 101 119 98 105 214 259 344 294 233 230 290 277 203 146 131 143 172 254 142 30 257 177 199 245 187 186 140 130 237 239 179 304 0 0 220 174 134 57 54 117 116 44 283 178 171 154 168 189 190 165 159 191 226 206 328 308 228 112 125 144 144 138 116 77 68 69 72 88 94
1 103 24 1 9 80 121 136 145 136 172 183 204 207 180 228 254 251 230 216 183 187 222 191 180 267 250 255 249 249 294 202 153 150 154 151 273 194 330 323 187 279 349 158 172 119 91 211 218 17 317 219 182 328 234 184 124 127 153 153 138 79 100 177 111 41 195 175 163 173 192 203 109 5 300 312 25 130 158 146 128 96 75 64 53 35 87 89
15 96 10 8 46 99 98 129 137 102 176 154 330 198 275 226 238 300 248 218 231 235 258 171 186 239 229 259 263 210 285 255 164 151 160 163 167 112 8 338 299 297 88 113 142 164 128 170 191 208 204 184 88 20 294 237 194 180 180 173 156 132 145 171 164 141 328 161 168 181 186 163 62 359 301 306 320 289 199 146 124 101 97 87 74 81 94 90
34 88 2 359 333 201 3 122 167 21 167 142 324 208 285 238 209 308 353 43 265 247 16 180 209 231 205 231 260 217 252 257 171 170 198 173 166 164 131 4 354 357 92 106 133 154 127 125 133 104 120 162 41 35 260 204 137 115 78 120 146 141 149 176 188 174 145 131 143 180 185 143 45 358 329 317 309 289 235 151 126 111 110 110 118 116 94 90
55 156 5 8 321 230 334 70 227 353 150 293 307 220 259 216 221 287 109 36 307 196 16 216 204 226 215 237 242 208 238 244 187 188 199 160 165 183 324 4 29 28 43 52 10 73 110 91 97 110 93 335 262 180 189 128 125 96 54 56 146 149 100 143 174 154 155 157 145 175 193 138 51 4 355 354 7 65 137 133 124 124 125 125 128 120 103 96
36 224 353 18 28 170 93 58 299 328 308 313 346 15 322 333 142 301 179 47 15 82 3 232 165 244 301 47 122 170 257 233 195 6 114 134 134 0 355 12 84 49 5 28 138 178 343 356 61 127 139 138 169 187 200 148 92 74 57 3 330 99 106 122 103 122 174 180 164 190 191 128 68 21 21 23 44 77 82 92 109 114 117 122 119 104 92 86
18 186 256 13 32 55 78 72 247 265 303 319 14 20 352 349 351 328 73 81 42 59 94 313 351 327 0 67 98 52 21 1 11 15 25 50 57 31 1 359 71 94 64 82 106 97 77 53 324 170 172 180 174 177 199 155 125 84 67 9 359 76 133 138 132 174 192 172 172 207 167 126 88 26 25 24 35 61 61 61 75 76 79 90 90 82 77 71
47 38 304 337 25 46 57 10 358 321 312 327 30 20 354 327 317 334 58 73 41 39 49 9 344 325 47 70 111 68 25 5 30 68 48 12 26 26 351 356 48 87 108 106 101 94 99 80 11 33 99 141 154 349 322 303 116 75 52 24 6 335 305 126 134 176 179 149 162 249 123 139 110 16 14 16 22 41 47 45 57 62 62 67 71 72 71 67
100 48 355 319 354 21 31 22 15 4 343 347 44 9 351 340 332 344 30 54 58 56 60 38 21 20 341 82 119 91 13 8 35 48 30 345 313 312 335 30 39 21 68 107 98 89 96 69 11 38 58 57 57 39 16 39 67 53 26 7 357 341 320 6 109 121 133 149 171 189 114 137 95 14 5 8 11 26 39 38 50 58 58 65 68 67 64 59
50 127 300 316 346 357 1 357 357 8 19 28 56 18 5 13 25 18 353 8 55 30 14 47 25 16 342 251 137 84 7 20 39 18 350 359 349 326 356 54 41 4 6 71 58 92 112 93 354 46 60 53 46 41 45 63 79 67 45 26 5 4 27 62 56 12 17 138 147 126 110 98 62 17 8 11 9 25 42 44 59 66 68 74 70 64 59 54
41 91 305 338 42 35 9 336 333 10 28 20 33 29 15 15 25 21 349 336 34 13 10 61 19 8 15 22 120 88 21 34 60 25 353 8 12 16 27 42 5 359 22 63 10 68 118 130 146 115 67 29 12 11 34 54 63 57 46 38 27 33 54 69 60 51 80 78 78 102 99 81 42 7 13 17 13 44 62 60 63 64 69 74 70 65 62 57
46 82 321 12 58 32 34 340 328 14 31 12 20 26 15 12 8 6 15 26 36 1 4 45 17 1 27 44 68 84 39 10 50 31 346 349 17 32 49 75 349 342 1 56 6 344 104 157 168 127 87 13 341 347 17 45 53 47 33 21 22 37 52 60 59 56 76 88 96 96 91 79 45 26 36 35 38 64 66 59 56 53 57 68 69 63 60 57
23 195 328 79 35 3 3 344 339 25 31 12 14 10 9 9 353 341 46 51 59 43 354 348 348 339 32 45 53 61 16 324 303 320 312 321 4 15 38 76 32 331 351 28 352 333 68 131 154 121 131 184 294 347 15 38 40 20 350 3 8 16 43 58 58 21 18 122 131 112 94 92 83 69 63 58 60 64 62 57 57 56 55 63 67 64 61 58
0 175 46 97 72 7 350 348 5 33 39 5 5 4 357 352 345 353 77 44 36 47 11 326 339 348 35 37 26 357 323 289 269 283 287 280 295 308 337 13 37 349 346 10 8 347 100 144 151 143 156 165 116 85 61 48 28 308 290 63 30 43 96 83 53 23 357 308 151 120 113 118 116 106 84 69 62 61 57 52 55 60 61 65 67 66 64 59
Height
795 794 793 793 792 791 791 790 789 789 788 787 787 786 785 785 784 783 782 781 780 779 778 777 776 775 774 773 772 771 769 767 765 766 763 754 750 752 753 753 755 757 759 760 761 762 763 765 765 766 766 768 770 770 771 771 771 773 778 784 785 787 782 775 775 773 771 769 767 767 768 768 768 767 764 763 767 770 772 771 770 770 768 766 767 769 772 776
794 793 792 792 791 790 789 789 788 787 787 786 786 785 784 784 783 782 782 781 780 778 777 776 775 774 773 772 771 769 767 765 763 761 755 749 750 751 752 753 754 756 758 759 760 761 762 764 764 765 766 768 770 770 771 771 771 775 782 784 782 782 775 770 771 770 770 769 767 767 769 768 766 766 764 766 773 772 773 775 772 773 771 769 770 772 774 777
794 793 792 791 790 789 788 787 787 786 786 785 785 784 783 783 782 782 781 780 779 778 777 775 774 773 771 770 770 768 766 764 759 753 749 748 749 750 751 752 753 755 757 758 760 760 760 761 763 765 766 768 771 771 771 772 772 775 780 782 779 776 771 770 770 769 768 768 768 768 768 767 765 765 764 767 773 772 773 775 774 775 774 772 772 773 775 777
793 792 791 790 789 788 787 786 786 785 785 784 784 783 782 781 781 781 780 779 778 777 776 775 773 772 771 770 768 766 765 762 753 748 748 748 748 749 750 752 753 755 757 758 759 760 760 761 762 764 766 769 772 771 771 771 773 775 776 776 774 775 772 767 767 767 768 769 768 768 767 766 764 765 765 766 772 772 769 768 769 770 771 772 773 773 775 776
793 792 791 789 788 787 786 785 785 784 784 783 782 781 781 780 780 779 778 778 777 776 775 774 772 771 770 769 767 766 765 760 751 746 748 748 747 748 750 752 754 755 757 758 759 760 760 761 762 764 766 770 772 771 771 770 771 774 774 773 771 775 773 763 763 766 766 768 768 768 767 765 765 766 766 766 768 767 764 764 764 765 766 768 769 771 774 776
793 791 790 788 787 786 785 784 784 783 782 782 781 780 780 779 779 778 777 776 776 775 774 773 772 771 769 768 767 766 764 758 750 747 748 748 748 748 750 752 754 755 756 757 758 759 760 761 762 765 766 769 772 770 770 770 770 772 773 773 772 772 770 763 763 764 764 766 767 767 766 765 765 766 768 767 765 763 762 762 762 763 765 766 767 770 772 774
792 791 789 788 786 785 784 783 782 782 781 780 780 779 779 778 778 777 776 775 775 774 773 772 771 770 769 767 766 766 765 756 747 747 748 747 748 748 750 752 753 755 756 757 758 759 760 762 763 765 767 769 772 769 768 769 770 772 772 772 771 771 768 764 763 763 765 765 765 766 765 765 765 767 768 767 764 763 762 760 760 762 765 767 769 770 771 773
791 790 788 787 785 784 783 782 781 780 779 779 778 778 778 777 776 776 775 774 774 773 773 772 771 770 768 767 766 765 762 753 747 747 747 747 748 748 750 752 753 755 756 756 758 759 760 761 763 765 766 768 769 768 769 770 770 772 771 769 769 769 765 763 764 763 764 764 764 766 764 764 764 764 766 766 765 764 761 760 761 763 765 768 770 771 773 773
790 789 787 786 785 783 782 781 780 779 778 778 777 777 776 775 775 775 774 773 773 772 772 771 770 769 768 768 767 762 754 749 747 747 747 747 747 748 750 751 753 754 755 757 757 758 760 761 762 762 764 767 767 767 768 770 770 768 767 767 767 766 763 762 763 761 762 763 764 763 762 763 763 763 763 765 766 764 762 762 763 765 767 769 770 772 773 774
789 788 786 785 784 783 781 780 779 778 777 776 776 775 774 774 774 773 773 773 772 771 771 771 769 769 768 767 767 760 750 747 748 746 747 747 747 748 749 750 752 754 755 757 757 758 759 759 760 759 761 765 767 767 767 767 766 764 765 766 764 764 763 763 761 761 762 761 761 761 761 764 764 764 762 764 766 764 764 765 766 768 769 770 770 772 773 775
788 787 785 784 783 782 780 779 778 777 776 775 774 774 773 773 772 772 772 771 771 771 770 770 769 768 768 767 767 759 748 747 748 747 748 748 748 748 749 750 751 753 755 756 757 757 757 758 758 759 761 763 765 767 767 764 763 763 764 765 764 764 763 762 760 761 762 759 758 759 762 766 766 764 761 763 766 765 766 768 768 770 770 771 771 772 773 774
787 786 784 783 782 781 780 779 777 776 775 774 773 772 772 772 771 771 771 771 770 770 769 769 769 768 768 767 764 754 746 747 747 747 748 748 749 749 749 750 751 753 754 755 756 756 758 758 758 759 761 762 765 768 765 762 764 764 764 765 764 763 761 759 759 761 761 758 757 758 763 767 766 765 764 764 766 766 768 769 770 771 771 772 772 772 773 774
787 785 784 782 781 780 779 778 776 775 774 773 772 771 771 770 770 770 769 770 769 769 769 768 768 768 769 763 753 748 746 747 747 747 748 748 749 749 750 751 752 753 754 755 756 757 758 758 758 759 761 762 765 765 762 763 765 765 767 767 766 766 763 759 761 762 760 759 756 758 767 766 761 763 765 766 766 767 770 771 771 771 771 773 773 773 774 775
786 784 783 782 780 779 778 777 775 774 773 772 771 770 769 769 769 768 769 769 768 769 768 768 768 768 768 758 746 746 746 746 746 746 747 748 749 749 750 751 753 754 755 756 756 757 758 758 759 759 761 762 762 762 763 766 767 767 769 771 774 774 765 758 761 762 758 759 757 758 768 764 755 760 764 766 767 768 771 771 771 772 772 773 773 774 775 776
785 784 782 781 780 778 777 776 774 773 772 771 770 769 768 768 768 767 768 767 768 768 767 768 768 768 767 755 745 745 745 744 745 744 746 747 748 749 750 751 753 754 755 756 757 757 758 758 759 761 762 761 761 764 766 768 769 771 773 775 780 776 766 759 760 760 755 758 759 759 767 762 755 758 762 765 767 768 770 770 771 773 773 773 774 776 776 777
785 783 782 780 779 778 776 775 774 772 771 770 769 768 767 767 767 767 767 766 767 767 768 768 767 768 765 751 745 745 744 744 743 743 745 746 747 748 750 752 754 755 756 757 757 757 758 759 761 763 762 762 764 765 767 771 773 774 774 775 779 776 770 763 759 759 756 757 759 759 765 762 757 760 761 764 767 768 770 770 772 773 774 774 775 776 777 778
784 782 781 780 778 777 776 774 773 772 770 769 768 767 766 766 766 766 766 767 767 767 768 767 768 769 759 746 745 745 744 744 742 743 744 745 747 747 749 753 754 755 756 757 757 758 758 760 763 764 764 767 768 765 771 780 776 776 776 774 778 778 773 766 759 760 760 759 759 759 762 759 759 762 762 764 766 769 770 770 772 774 775 775 775 777 778 778
784 782 780 779 777 776 774 773 772 771 769 768 767 766 766 765 765 766 766 766 767 768 768 768 768 765 754 745 746 745 743 743 742 743 743 745 747 748 749 751 753 755 757 758 758 759 760 762 764 764 767 770 769 766 773 778 773 773 774 772 776 777 775 771 762 760 760 760 760 763 763 758 760 765 763 763 766 768 770 769 771 774 775 776 776 777 777 778
783 781 779 778 776 775 774 772 771 770 769 767 766 766 765 765 766 766 767 767 766 763 760 761 761 756 749 746 744 743 742 742 742 742 743 745 746 748 749 749 752 754 757 759 760 760 761 763 766 767 769 768 765 764 766 768 767 768 771 771 773 772 771 768 763 760 760 761 761 762 760 755 760 767 763 762 765 767 769 769 770 773 775 775 776 777 777 778
782 780 778 777 775 774 773 771 770 769 768 766 766 766 765 765 764 764 766 766 760 752 748 750 751 748 746 744 742 741 741 741 741 741 742 743 745 747 748 750 752 753 757 759 760 762 762 765 768 767 765 763 762 765 766 768 769 769 771 772 773 773 767 761 761 762 762 762 761 761 759 756 761 766 764 762 765 767 768 769 770 771 773 774 775 776 776 777
781 779 777 776 774 773 772 770 769 768 766 766 766 765 763 763 763 762 761 757 750 747 746 744 744 744 743 741 741 741 742 742 740 741 742 742 744 747 750 752 754 757 761 762 762 763 763 768 768 761 761 762 765 769 769 770 772 771 772 771 773 775 766 759 762 764 764 762 762 766 763 761 766 768 765 763 766 768 767 768 770 771 772 773 774 775 775 776
780 778 776 775 773 772 771 769 768 766 766 765 765 765 762 761 762 761 760 754 745 743 743 741 742 743 739 740 741 741 745 746 742 740 741 742 744 747 751 753 755 759 763 763 763 765 767 767 761 758 765 769 771 774 770 770 773 772 773 773 770 770 765 761 763 765 765 761 762 768 765 765 772 771 767 766 767 768 766 767 769 770 772 772 774 775 775 776
779 777 775 774 772 771 769 768 766 765 765 764 764 763 761 760 760 759 761 758 746 738 739 740 741 741 738 739 739 740 745 746 744 741 739 741 744 747 750 753 756 760 762 762 761 767 769 762 758 762 767 767 771 775 771 770 773 772 772 771 766 767 766 761 761 766 768 766 764 764 764 768 774 773 772 770 770 770 768 768 768 769 771 772 773 775 775 776
778 776 774 772 771 769 768 767 765 764 764 763 762 760 760 759 758 758 759 757 749 739 735 735 736 737 736 734 734 738 742 742 741 739 737 739 744 747 748 751 757 759 760 760 760 763 761 759 763 767 766 764 768 775 773 769 771 772 772 768 763 764 763 760 762 765 766 767 766 762 765 770 773 775 777 774 772 772 771 771 771 770 770 771 773 773 774 775
777 775 773 771 769 767 766 765 763 764 763 761 759 758 759 758 756 757 757 758 754 741 733 733 734 732 730 731 733 734 738 738 736 735 735 736 740 746 749 750 754 757 761 762 763 761 757 759 765 764 765 766 766 771 771 767 767 770 767 762 760 759 759 761 764 764 763 765 768 767 769 772 773 775 776 774 774 774 773 773 773 772 771 771 773 773 773 774
776 774 772 770 768 765 765 764 763 764 761 759 757 756 757 755 755 756 757 764 758 739 732 734 734 730 727 731 732 732 738 738 731 731 733 734 735 740 748 752 752 755 761 762 762 759 757 761 763 760 764 767 766 768 768 765 766 766 759 755 759 760 760 763 762 761 763 766 772 773 769 770 773 772 773 774 773 773 774 773 771 770 770 771 772 773 773 774
775 773 771 769 767 765 765 763 763 763 760 757 755 756 756 753 754 754 758 769 758 736 733 735 733 729 727 730 730 732 740 736 730 731 732 733 735 737 745 753 753 755 759 761 761 758 756 761 764 762 763 767 768 765 762 763 762 759 755 756 760 760 760 763 760 760 764 767 771 772 766 766 770 772 775 776 773 773 773 772 770 768 768 768 769 771 772 773
773 771 769 768 766 766 765 764 763 761 757 755 755 756 754 753 754 753 763 773 754 731 731 732 729 727 726 730 729 731 733 729 733 736 730 731 735 736 744 750 749 751 755 757 759 757 755 757 758 759 762 765 760 754 756 759 755 755 759 761 761 761 761 761 758 761 770 769 765 767 767 768 769 771 775 776 773 772 771 768 768 767 766 766 766 767 769 770
771 769 768 765 764 764 763 763 761 758 755 754 755 754 752 753 752 755 771 772 745 728 729 728 728 728 728 733 732 730 729 728 733 734 730 733 734 736 743 746 746 751 754 754 753 752 753 752 751 753 756 754 750 751 755 754 752 757 763 762 761 764 766 764 760 760 768 771 766 771 775 772 770 767 768 771 769 768 768 765 765 765 764 764 764 765 767 769
768 766 765 763 762 762 761 760 756 753 753 753 754 752 751 753 755 767 780 764 740 731 729 727 731 731 731 737 737 733 732 731 730 732 733 735 734 736 741 743 745 750 753 754 753 751 751 751 751 750 748 747 750 758 761 756 757 760 758 756 758 762 762 764 765 763 769 774 773 780 784 775 772 768 764 766 767 768 770 767 766 766 764 763 763 764 766 767
765 763 762 761 760 760 760 757 752 751 752 752 752 751 751 756 763 777 775 751 738 736 729 730 733 731 732 738 737 734 734 733 731 733 736 737 738 740 743 745 747 752 757 756 754 752 752 752 750 746 744 747 751 758 762 760 761 759 753 753 759 764 764 766 769 769 775 780 778 786 789 777 772 769 764 764 767 771 774 771 769 767 765 764 763 764 765 767
761 760 758 757 757 756 756 753 750 751 751 751 752 750 753 764 772 773 760 743 742 739 734 736 735 732 734 735 735 734 734 735 732 733 736 739 742 743 743 746 748 756 764 760 756 756 751 747 746 744 743 744 746 754 762 761 759 757 753 757 765 773 777 778 778 779 780 780 781 788 787 777 771 767 766 767 767 771 774 772 771 768 765 765 764 764 766 768
758 756 754 753 753 752 750 749 750 751 750 751 752 750 757 770 770 761 753 746 744 739 736 737 734 734 737 735 734 733 733 735 733 733 736 739 743 744 743 744 744 749 758 762 762 758 752 747 745 744 742 740 739 748 758 759 758 755 754 759 766 778 790 793 793 795 788 779 784 789 783 778 774 769 769 771 770 771 773 772 771 769 768 767 765 765 767 769
754 752 750 749 749 748 747 748 749 749 750 750 751 753 763 770 762 755 753 749 743 740 737 737 736 735 737 736 733 731 733 735 733 734 737 740 746 748 746 747 746 744 750 761 764 759 759 755 745 740 741 739 738 739 744 749 754 757 755 754 760 767 778 786 785 785 782 779 785 787 782 779 775 770 770 771 771 772 771 772 771 770 769 767 766 767 768 771
751 749 748 747 747 747 746 746 746 748 750 749 751 758 763 762 757 755 752 746 743 741 738 738 738 736 737 736 733 730 730 733 735 736 738 741 744 746 744 744 746 745 747 757 762 761 765 758 741 740 743 740 738 737 737 743 752 762 760 755 758 756 760 779 789 785 781 780 784 786 783 780 775 773 772 772 772 773 772 773 772 770 769 767 767 769 770 772
749 747 747 746 746 745 744 744 744 747 748 749 753 758 755 750 750 749 744 740 741 741 739 739 738 737 738 736 734 732 728 731 736 738 739 742 741 742 742 739 740 741 741 749 758 760 763 754 741 743 744 741 741 739 738 742 748 760 761 756 760 755 754 776 795 797 790 783 785 790 786 780 776 774 774 774 775 775 776 775 773 772 769 767 768 768 769 770
747 746 745 745 744 743 742 741 743 746 747 749 752 754 750 745 744 743 740 738 740 739 740 742 740 740 742 739 737 734 729 730 737 738 741 743 741 739 739 735 735 736 732 738 748 752 754 750 743 743 743 742 744 741 740 742 744 752 756 752 757 760 759 766 780 793 793 784 786 793 790 783 778 774 773 775 777 779 778 777 775 774 769 768 769 768 768 769
746 745 745 745 743 741 740 740 742 745 747 750 751 751 751 747 741 741 739 738 739 739 741 745 742 742 745 743 739 736 732 733 738 740 741 742 741 737 736 734 733 734 731 732 740 747 751 750 747 745 745 744 742 740 743 746 745 746 745 745 753 760 764 768 777 785 788 790 792 793 796 789 775 770 769 770 775 778 778 778 776 775 773 772 773 772 773 774
746 745 745 745 742 739 739 740 743 744 746 751 750 749 750 747 742 741 739 738 740 740 742 745 744 745 745 743 741 738 735 735 738 740 741 743 742 737 735 735 733 735 735 732 737 746 750 752 750 747 746 745 742 742 746 748 748 747 746 749 754 757 761 766 772 770 773 790 796 791 792 783 770 773 771 766 771 776 776 778 777 777 778 777 778 778 777 777
747 745 747 747 743 740 741 742 744 745 746 750 750 748 749 745 741 740 738 737 738 739 742 746 746 746 743 742 742 740 737 737 737 740 741 742 742 737 735 735 734 737 737 734 738 744 748 753 754 748 745 746 746 747 749 748 749 749 750 754 758 762 765 765 771 773 770 780 790 790 788 776 772 783 781 772 775 776 774 777 779 781 782 781 781 783 781 780
747 746 749 749 746 744 744 744 747 748 748 751 751 749 747 743 739 738 737 737 737 736 739 742 743 744 743 742 741 740 738 737 737 739 739 739 742 740 737 736 735 736 736 737 739 742 746 751 752 749 748 748 750 752 754 752 751 749 748 751 755 760 762 762 773 782 776 775 782 784 779 774 778 788 786 781 781 778 776 777 780 783 783 784 785 785 784 783
749 751 752 750 747 747 745 745 751 753 749 748 748 746 744 740 739 738 737 738 738 737 739 739 740 742 742 741 740 739 739 737 737 739 737 738 742 740 736 735 737 737 737 739 741 743 745 747 750 753 753 752 753 755 757 756 755 751 750 755 757 754 752 755 765 775 779 782 784 777 772 775 784 789 786 785 783 781 780 777 779 784 785 786 788 786 786 785
753 754 752 749 748 747 746 747 751 752 748 747 746 744 742 741 740 739 739 740 740 740 741 740 740 740 740 741 740 739 740 738 737 738 735 736 739 737 734 734 737 739 738 740 743 744 746 747 752 758 757 751 749 751 755 755 754 752 756 764 764 756 753 755 758 762 771 780 778 773 774 778 785 789 786 784 782 781 781 778 780 784 785 787 788 787 788 788
759 758 754 751 747 746 751 757 760 757 753 749 746 743 742 741 741 741 740 742 742 743 742 741 741 742 741 743 743 743 744 741 739 740 738 737 738 737 736 735 736 739 740 741 742 743 749 755 756 759 764 762 757 756 754 751 753 757 764 769 769 764 760 760 763 762 765 776 774 766 770 778 784 789 787 784 783 781 782 781 781 784 786 787 788 788 789 789
759 757 756 755 749 749 759 767 768 765 761 754 748 748 748 744 742 742 742 744 747 747 746 744 745 745 745 745 745 746 747 744 742 742 742 741 739 738 739 737 736 739 742 743 742 744 757 768 764 757 761 766 765 764 761 756 757 762 767 769 771 769 760 755 761 760 761 776 777 763 767 780 786 788 788 788 787 785 785 785 784 786 788 789 789 790 790 791
760 761 762 760 756 758 765 768 767 766 764 759 754 756 757 751 745 743 743 746 749 749 749 749 749 747 745 745 745 747 749 747 744 745 747 746 742 741 742 739 738 740 742 741 742 748 762 774 773 764 760 762 767 770 770 765 763 765 766 767 771 775 768 756 755 757 762 773 774 769 773 782 788 793 795 794 792 790 790 790 788 790 790 791 792 791 792 793
764 770 774 769 764 765 768 768 769 768 765 762 762 764 764 758 751 745 744 746 749 750 751 753 752 748 747 746 744 747 752 750 747 749 753 752 747 745 743 741 740 741 741 740 741 749 762 771 774 774 772 773 774 775 773 770 772 777 777 774 774 775 770 759 756 763 766 764 767 776 781 783 792 802 801 800 799 796 796 795 794 794 794 794 794 793 793 795
768 774 779 775 773 776 775 773 774 772 766 763 767 770 767 762 758 755 752 749 749 751 751 753 755 754 755 753 746 749 755 753 752 756 757 754 751 746 742 741 743 742 742 742 742 747 760 771 775 777 778 778 776 775 773 772 777 783 785 785 782 776 769 768 775 782 775 764 769 783 788 791 801 807 804 804 805 801 801 801 799 798 798 796 795 795 797 799
773 776 778 775 777 782 781 779 777 774 770 768 769 773 772 769 766 763 761 754 752 754 755 756 759 758 758 756 750 754 760 756 755 761 761 758 755 751 748 746 746 744 742 744 746 746 756 772 778 777 780 781 778 777 777 775 777 780 783 787 789 786 782 783 791 793 785 782 788 791 795 803 809 809 807 807 806 804 803 802 800 800 799 798 797 799 801 803
778 780 780 777 778 780 781 782 780 776 774 774 774 777 776 775 771 767 765 762 759 761 761 761 762 760 759 757 754 760 767 763 760 762 762 760 757 755 757 756 754 751 746 746 749 746 751 768 774 773 781 787 782 780 780 776 779 783 784 784 785 784 784 787 794 795 789 792 799 795 797 809 812 811 811 809 806 804 803 803 804 803 802 800 801 803 805 806
781 783 782 779 781 782 781 783 781 778 779 781 783 783 780 779 777 772 769 768 767 769 769 766 764 762 759 760 760 765 771 769 766 764 762 762 759 757 759 760 759 758 753 752 754 748 750 767 773 771 778 786 785 786 784 780 782 784 783 785 785 784 785 792 801 803 796 794 794 789 795 808 813 813 813 810 808 807 806 807 808 807 805 804 805 808 809 809
782 783 783 781 782 786 786 784 781 780 786 789 789 788 787 784 779 773 771 770 768 769 771 769 766 762 759 761 764 767 770 769 766 765 763 763 762 761 761 761 762 762 758 756 758 756 755 763 769 768 772 783 789 789 787 785 783 782 785 795 800 799 799 801 806 811 809 802 793 788 797 811 815 813 813 813 812 812 813 814 812 811 810 809 810 811 812 812